Weather History for Mount Sterling, KY

Change the Weather History Date:

Friday, April 5, 2013

  Actual Average Record
Temperature  
Mean Temperature 46 °F -  
Max Temperature 62 °F 60 °F 62 °F (2013)
Min Temperature 30 °F 37 °F 30 °F (2013)
Degree Days  
Heating Degree Days 19    
Moisture  
Dew Point 31 °F    
Average Humidity 59    
Maximum Humidity 100    
Minimum Humidity 30    
Precipitation  
Precipitation 0.00 in - - ()
Sea Level Pressure  
Sea Level Pressure 30.05 in    
Wind  
Wind Speed 4 mph (NNW)    
Max Wind Speed 14 mph    
Max Gust Speed 17 mph    
Visibility 10 miles    
Events      
Averages and records for this station are not official NWS values.
T = Trace of Precipitation, MM = Missing Value Source: NWS Daily Summary

Daily Weather History Graph

Daily Weather History Graph

Search for Another Location

Airport:

Trip Planner

Search our weather history database for the weather conditions in past years. The results will help you decide how hot, cold, wet, or windy it might be!

Date:

Astronomy

Apr. 05, 2013 Rise Set
Actual Time 7:14 AM EDT 8:02 PM EDT
Civil Twilight 6:47 AM EDT 8:29 PM EDT
Nautical Twilight 6:16 AM EDT 9:01 PM EDT
Astronomical Twilight 5:43 AM EDT 9:34 PM EDT
Moon 4:16 AM EDT (4/5) 3:29 PM EDT (4/5)
Length of Visible Light 13h 41m
Length of Day
12h 48m
Waning Crescent, 24% of the Moon is Illuminated
Apr 5
Waning Crescent
Apr 10
New
Apr 18
First Quarter
Apr 25
Full
May 2
Last Quarter

Hourly Weather History & Observations

Time (EDT) Temp. Windchill Dew Point Humidity Pressure Visibility Wind Dir Wind Speed Gust Speed Precip Events Conditions
12:15 AM 39.2 °F - 32.0 °F 75% 30.01 in 10.0 mi Calm Calm - N/A   Clear
12:35 AM 41.0 °F - 32.0 °F 70% 30.01 in 10.0 mi Calm Calm - N/A   Scattered Clouds
12:55 AM 35.6 °F - 32.0 °F 87% 30.00 in 10.0 mi Calm Calm - N/A   Scattered Clouds
1:15 AM 35.6 °F - 32.0 °F 87% 30.00 in 10.0 mi Calm Calm - N/A   Clear
1:35 AM 35.6 °F 32.8 °F 32.0 °F 87% 30.00 in 10.0 mi West 3.5 mph - N/A   Clear
1:55 AM 35.6 °F 32.8 °F 32.0 °F 87% 30.00 in 10.0 mi West 3.5 mph - N/A   Clear
2:15 AM 33.8 °F - 32.0 °F 93% 30.00 in 10.0 mi Calm Calm - N/A   Clear
2:35 AM 32.0 °F 28.7 °F 32.0 °F 100% 30.00 in 10.0 mi West 3.5 mph - N/A   Clear
2:55 AM 32.0 °F 28.7 °F 30.2 °F 93% 30.00 in 10.0 mi WNW 3.5 mph - N/A   Clear
3:15 AM 32.0 °F 28.7 °F 32.0 °F 100% 30.00 in 10.0 mi West 3.5 mph - N/A   Scattered Clouds
3:35 AM 32.0 °F 28.7 °F 30.2 °F 93% 30.00 in 10.0 mi West 3.5 mph - N/A   Clear
3:55 AM 32.0 °F 28.7 °F 30.2 °F 93% 30.00 in 10.0 mi West 3.5 mph - N/A   Clear
4:15 AM 32.0 °F 27.5 °F 30.2 °F 93% 30.01 in 10.0 mi West 4.6 mph - N/A   Clear
4:35 AM 32.0 °F 27.5 °F 30.2 °F 93% 30.02 in 10.0 mi WNW 4.6 mph - N/A   Clear
4:55 AM 32.0 °F 26.4 °F 30.2 °F 93% 30.03 in 10.0 mi WNW 5.8 mph - N/A   Clear
5:15 AM 32.0 °F 27.5 °F 30.2 °F 93% 30.03 in 10.0 mi NW 4.6 mph - N/A   Clear
5:35 AM 32.0 °F 27.5 °F 30.2 °F 93% 30.03 in 10.0 mi WNW 4.6 mph - N/A   Clear
5:55 AM 32.0 °F 28.7 °F 32.0 °F 100% 30.03 in 10.0 mi WNW 3.5 mph - N/A   Clear
6:15 AM 32.0 °F 28.7 °F 30.2 °F 93% 30.04 in 10.0 mi WNW 3.5 mph - N/A   Clear
6:35 AM 30.2 °F 25.4 °F 28.4 °F 93% 30.04 in 10.0 mi West 4.6 mph - N/A   Clear
6:55 AM 32.0 °F 27.5 °F 30.2 °F 93% 30.05 in 10.0 mi West 4.6 mph - N/A   Clear
7:15 AM 30.2 °F 25.4 °F 28.4 °F 93% 30.05 in 10.0 mi West 4.6 mph - N/A   Clear
7:35 AM 30.2 °F 24.3 °F 28.4 °F 93% 30.05 in 10.0 mi WSW 5.8 mph - N/A   Clear
7:55 AM 32.0 °F 27.5 °F 30.2 °F 93% 30.06 in 10.0 mi WSW 4.6 mph - N/A   Clear
8:15 AM 32.0 °F 26.4 °F 30.2 °F 93% 30.06 in 10.0 mi WSW 5.8 mph - N/A   Clear
8:35 AM 35.6 °F 31.7 °F 32.0 °F 87% 30.06 in 10.0 mi SW 4.6 mph - N/A   Clear
8:55 AM 37.4 °F 32.8 °F 33.8 °F 87% 30.06 in 10.0 mi WSW 5.8 mph - N/A   Clear
9:15 AM 41.0 °F - 33.8 °F 76% 30.07 in 10.0 mi Calm Calm - N/A   Clear
9:35 AM 44.6 °F 41.4 °F 32.0 °F 61% 30.07 in 10.0 mi NW 5.8 mph - N/A   Clear
9:55 AM 46.4 °F 43.5 °F 32.0 °F 57% 30.07 in 10.0 mi NNW 5.8 mph - N/A   Clear
10:15 AM 50.0 °F - 32.0 °F 50% 30.08 in 10.0 mi NW 4.6 mph - N/A   Clear
10:35 AM 50.0 °F - 30.2 °F 47% 30.08 in 10.0 mi NNW 5.8 mph - N/A   Clear
10:55 AM 51.8 °F - 30.2 °F 44% 30.08 in 10.0 mi NW 4.6 mph - N/A   Clear
11:15 AM 53.6 °F - 30.2 °F 41% 30.08 in 10.0 mi North 5.8 mph - N/A   Clear
11:35 AM 55.4 °F - 28.4 °F 36% 30.08 in 10.0 mi NNW 8.1 mph - N/A   Clear
11:55 AM 55.4 °F - 28.4 °F 36% 30.08 in 10.0 mi NNW 6.9 mph - N/A   Clear
12:15 PM 57.2 °F - 26.6 °F 31% 30.07 in 10.0 mi North 8.1 mph - N/A   Clear
12:35 PM 57.2 °F - 26.6 °F 31% 30.07 in 10.0 mi NNW 4.6 mph - N/A   Scattered Clouds
12:55 PM 59.0 °F - 28.4 °F 31% 30.06 in 10.0 mi NNW 8.1 mph - N/A   Clear
1:15 PM 59.0 °F - 28.4 °F 31% 30.06 in 10.0 mi NNW 9.2 mph - N/A   Clear
1:35 PM 60.8 °F - 32.0 °F 34% 30.06 in 10.0 mi NW 9.2 mph - N/A   Clear
1:55 PM 60.8 °F - 32.0 °F 34% 30.05 in 10.0 mi North 6.9 mph - N/A   Clear
2:15 PM 60.8 °F - 32.0 °F 34% 30.04 in 10.0 mi North 5.8 mph 17.3 mph N/A   Clear
2:35 PM 60.8 °F - 32.0 °F 34% 30.04 in 10.0 mi NNW 6.9 mph 17.3 mph N/A   Clear
2:55 PM 62.6 °F - 32.0 °F 32% 30.03 in 10.0 mi North 4.6 mph 9.2 mph N/A   Clear
3:15 PM 62.6 °F - 32.0 °F 32% 30.03 in 10.0 mi North 5.8 mph - N/A   Clear
3:35 PM 62.6 °F - 30.2 °F 30% 30.03 in 10.0 mi NNE 13.8 mph - N/A   Clear
3:55 PM 62.6 °F - 32.0 °F 32% 30.03 in 10.0 mi NW 9.2 mph 16.1 mph N/A   Clear
4:15 PM 62.6 °F - 32.0 °F 32% 30.03 in 10.0 mi North 6.9 mph - N/A   Clear
4:35 PM 62.6 °F - 32.0 °F 32% 30.02 in 10.0 mi NNW 9.2 mph - N/A   Clear
4:55 PM 62.6 °F - 30.2 °F 30% 30.02 in 10.0 mi NNW 6.9 mph 16.1 mph N/A   Clear
5:15 PM 62.6 °F - 30.2 °F 30% 30.02 in 10.0 mi North 6.9 mph - N/A   Clear
5:35 PM 62.6 °F - 30.2 °F 30% 30.02 in 10.0 mi NNW 4.6 mph - N/A   Clear
5:55 PM 62.6 °F - 32.0 °F 32% 30.02 in 10.0 mi North 6.9 mph - N/A   Clear
6:15 PM 62.6 °F - 32.0 °F 32% 30.03 in 10.0 mi North 3.5 mph - N/A   Clear
6:35 PM 62.6 °F - 32.0 °F 32% 30.03 in 10.0 mi NNW 6.9 mph - N/A   Clear
6:55 PM 60.8 °F - 32.0 °F 34% 30.03 in 10.0 mi North 6.9 mph - N/A   Clear
7:15 PM 60.8 °F - 32.0 °F 34% 30.03 in 10.0 mi North 4.6 mph - N/A   Clear
7:35 PM 59.0 °F - 32.0 °F 36% 30.03 in 10.0 mi North 4.6 mph - N/A   Clear
7:55 PM 59.0 °F - 32.0 °F 36% 30.04 in 10.0 mi North 5.8 mph - N/A   Clear
8:15 PM 55.4 °F - 32.0 °F 41% 30.05 in 10.0 mi North 4.6 mph - N/A   Clear
8:35 PM 55.4 °F - 32.0 °F 41% 30.06 in 10.0 mi North 3.5 mph - N/A   Clear
8:55 PM 53.6 °F - 32.0 °F 44% 30.07 in 10.0 mi North 4.6 mph - N/A   Clear
9:15 PM 53.6 °F - 32.0 °F 44% 30.09 in 10.0 mi NNE 5.8 mph - N/A   Clear
9:35 PM 51.8 °F - 32.0 °F 47% 30.10 in 10.0 mi NNE 4.6 mph - N/A   Clear
9:55 PM 51.8 °F - 30.2 °F 44% 30.11 in 10.0 mi North 4.6 mph - N/A   Clear
10:15 PM 50.0 °F - 30.2 °F 47% 30.12 in 10.0 mi NNE 5.8 mph - N/A   Clear
10:35 PM 50.0 °F - 30.2 °F 47% 30.12 in 10.0 mi NNE 4.6 mph - N/A   Clear
10:55 PM 48.2 °F - 28.4 °F 46% 30.13 in 10.0 mi NNE 5.8 mph - N/A   Clear
11:15 PM 46.4 °F 42.9 °F 30.2 °F 53% 30.13 in 10.0 mi NE 6.9 mph - N/A   Clear
11:35 PM 46.4 °F 42.9 °F 30.2 °F 53% 30.13 in 10.0 mi NE 6.9 mph - N/A   Clear
11:55 PM 46.4 °F 43.5 °F 30.2 °F 53% 30.14 in 10.0 mi NE 5.8 mph - N/A   Clear